[[{"header":{"parameterUnit":"m.s-1","parameterCategory":2,"la1":30.2991,"la2":30.254,"lo1":-89.0895,"lo2":-89.0444,"dy":0.0017,"dx":0.0017,"nx":28,"ny":28,"refTime":"2025-01-17T03:00:00:Z","depth":"0","parameterNumber":2,"parameterNumberName":"U-component_of_CURRENTS"},"data":[0,0,0,0,0,0,0,0,0,0,0,0,0,0,0,0,0,0,0,0,0,0,0,0,0,0,0,0,0,0,0,0,0,0,0,0,0,0,0,0,0,0,0,0,0,0,0,0,0,0,0,0,0,0,0,0,0,0,0.1641,0.1641,0,0.1637,0.1637,0.1637,0.1599,0.1598,0.1597,0.1596,0.1577,0.1578,0.1578,0,0,0,0,0,0,0,0,0,0,0,0,0,0.1732,0.173,0.1641,0.1641,0.1641,0.1637,0.1637,0.1637,0.1599,0.1598,0.1596,0.1595,0.1577,0.1578,0.1578,0,0,0,0,0,0,0,0,0,0,0,0,0,0.1707,0.1729,0.1641,0.162,0.1618,0.1637,0.1637,0.1637,0.1599,0.1598,0.1596,0.1595,0.1577,0.1578,0.1578,0.1615,0,0,0.1581,0.1581,0,0,0,0,0,0,0,0,0.1709,0.1704,0.1623,0.1622,0.162,0.1616,0.1663,0.1629,0.16,0.1608,0.1596,0.1594,0.1589,0.1589,0.1594,0.1614,0.1613,0.1581,0.1581,0.1582,0.1582,0,0,0,0,0,0,0,0.171,0.1705,0.164,0.1623,0.1621,0.1651,0.1645,0.1657,0.1608,0.1607,0.1604,0.1602,0.1588,0.1593,0.1593,0.1613,0.1581,0.1581,0.1582,0.1582,0.1711,0.1714,0,0,0,0,0,0,0.1704,0.1705,0.1641,0.164,0.166,0.165,0.1644,0.162,0.1608,0.1605,0.1604,0.16,0.1592,0.1592,0.1592,0.1684,0.1582,0.1582,0.1583,0.1708,0.1711,0.1715,0,0,0,0,0,0,0.1705,0.1697,0.1641,0.1674,0.1668,0.165,0.1624,0.162,0.1626,0.1606,0.1602,0.1612,0.1591,0.1591,0.1614,0.1681,0.1583,0.1583,0.1704,0.1709,0.1713,0.1836,0,0,0,0,0,0,0.1708,0.1697,0.1697,0.1672,0.1666,0.1661,0.1625,0.1621,0.1626,0.1622,0.1612,0.1608,0.159,0.1613,0.1614,0.168,0.1584,0.1701,0.1706,0.1712,0.1828,0.1844,0.1858,0,0,0,0,0,0.1711,0.1718,0.1696,0.169,0.1659,0.1662,0.1663,0.1646,0.1629,0.1643,0.1636,0.1608,0.165,0.1615,0.1617,0.1684,0.1698,0.1705,0.1711,0.1822,0.1841,0.1858,0,0,0,0,0,0,0.178,0.1714,0.169,0.1682,0.1674,0.1655,0.1677,0.1657,0.1664,0.1665,0.1636,0.1633,0.1674,0.1667,0.1629,0.174,0.1675,0.1682,0.1759,0.1777,0.1791,0.1825,0.1584,0,0,0,0,0,0.1789,0.176,0.1723,0.1722,0.1722,0.1701,0.1706,0.169,0.1685,0.1686,0.1671,0.1679,0.1707,0.1727,0.173,0.1795,0.1845,0.1844,0.1859,0.1871,0.1902,0.203,0.206,0.1737,0.1736,0.1736,0,0,0.1816,0.1779,0.1765,0.1734,0.173,0.1755,0.1701,0.1715,0.1745,0.1686,0.1726,0.1714,0.1729,0.1791,0.1814,0.1795,0.1996,0.188,0.189,0.1914,0.204,0.2072,0.21,0.1741,0.174,0.1739,0,0,0.1869,0.1826,0.1828,0.1826,0.1815,0.1807,0.1812,0.1793,0.1796,0.1823,0.1803,0.184,0.1853,0.19,0.1924,0.203,0.2052,0.2028,0.2153,0.2278,0.2306,0.2331,0.2464,0.25,0.2058,0.2058,0.2058,0,0.1912,0.1899,0.1842,0.1862,0.1877,0.1835,0.1876,0.1886,0.1875,0.1904,0.1848,0.1932,0.192,0.2057,0.2086,0.2068,0.2141,0.2081,0.23,0.2326,0.235,0.2479,0.2517,0.2065,0.2064,0.2063,0.2062,0,0.1969,0.1972,0.1988,0.1983,0.1997,0.2026,0.2022,0.2043,0.2028,0.2037,0.212,0.2117,0.218,0.2187,0.2164,0.2344,0.2343,0.2286,0.2257,0.239,0.2518,0.2555,0.2074,0.2072,0.207,0.2068,0,0,0.2023,0.2023,0.2031,0.2048,0.2062,0.2074,0.2146,0.2199,0.226,0.2263,0.2358,0.2412,0.2408,0.2438,0.2435,0.2539,0.2756,0.2495,0.2499,0.2632,0.3063,0.3092,0.3136,0.2741,0.2748,0.2753,0.3095,0,0.2091,0.2138,0.213,0.2202,0.2228,0.2232,0.2299,0.2344,0.2371,0.2446,0.2495,0.2565,0.2512,0.2548,0.2655,0.2698,0.2857,0.2671,0.291,0.2918,0.2932,0.3181,0.3126,0.3429,0.3132,0.3138,0.3142,0,0.2147,0.2167,0.2236,0.2288,0.2306,0.2351,0.2446,0.25,0.2608,0.2632,0.2738,0.2754,0.2915,0.2823,0.3076,0.296,0.3052,0.3094,0.3107,0.3119,0.3018,0.3242,0.3508,0.3327,0.32,0.3195,0.3191,0,0.2176,0.2242,0.2294,0.2312,0.2371,0.2421,0.2465,0.256,0.2615,0.2764,0.2813,0.2995,0.3059,0.3219,0.3295,0.3216,0.3555,0.3453,0.36,0.3602,0.3598,0.3588,0.3721,0.3705,0.3704,0.3703,0.3702,0,0.2228,0.2269,0.2308,0.2332,0.2406,0.2447,0.2546,0.2611,0.2728,0.2818,0.2912,0.3025,0.3156,0.3327,0.3417,0.3648,0.3683,0.3708,0.3727,0.364,0.3631,0.3498,0.3381,0.3716,0.3713,0.371,0.3708,0,0.2232,0.2264,0.2314,0.2385,0.2407,0.2453,0.2545,0.2614,0.273,0.2855,0.291,0.3089,0.3331,0.3486,0.374,0.3798,0.3909,0.4079,0.3973,0.3974,0.3915,0.3807,0.388,0.3768,0.4341,0.4344,0.4347,0,0.2224,0.2249,0.2318,0.2335,0.2363,0.2433,0.2473,0.2592,0.2662,0.2894,0.2952,0.3224,0.3399,0.3801,0.4,0.4282,0.406,0.4366,0.4212,0.3997,0.3889,0.3645,0.3523,0.4271,0.4273,0.4274,0.4275,0,0.2194,0.2224,0.2261,0.2299,0.2335,0.2382,0.2457,0.2514,0.2672,0.2804,0.3008,0.3183,0.3592,0.385,0.4205,0.4363,0.4133,0.4408,0.4226,0.3925,0.3633,0.3501,0.3943,0.4289,0.4288,0.4287,0.4286,0.4286,0.2148,0.2166,0.2208,0.2241,0.2277,0.2309,0.2335,0.2448,0.2571,0.2759,0.2972,0.3217,0.3616,0.412,0.4251,0.44,0.427,0.4312,0.4234,0.403,0.3815,0.4303,0.4616,0.4616,0.4617,0.4617,0.4617,0,0.2061,0.2097,0.2135,0.2167,0.2174,0.2222,0.2294,0.2325,0.2443,0.2702,0.2896,0.3305,0.3633,0.3951,0.4263,0.4186,0.4008,0.4083,0.37,0.3614,0.413,0.4012,0.4156,0.4156,0.4156,0.4156,0.4157,0.4157,0.2012,0.2022,0.2053,0.2037,0.206,0.2046,0.2068,0.2154,0.2319,0.2576,0.2813,0.3053,0.3425,0.3801,0.3871,0.3863,0.3501,0.3451,0.3319,0.3631,0.3641,0.365,0.351,0.3547,0.3546,0.2686,0.2679,0.2674]},{"header":{"parameterUnit":"m.s-1","parameterCategory":2,"la1":30.2991,"la2":30.254,"lo1":-89.0895,"lo2":-89.0444,"dy":0.0017,"dx":0.0017,"nx":28,"ny":28,"refTime":"2025-01-17T03:00:00:Z","depth":"0","parameterNumber":3,"parameterNumberName":"V-component_of_CURRENTS"},"data":[0,0,0,0,0,0,0,0,0,0,0,0,0,0,0,0,0,0,0,0,0,0,0,0,0,0,0,0,0,0,0,0,0,0,0,0,0,0,0,0,0,0,0,0,0,0,0,0,0,0,0,0,0,0,0,0,0,0,-0.0717,-0.0717,0,-0.075,-0.0751,-0.0751,-0.0836,-0.0837,-0.0838,-0.084,-0.095,-0.0952,-0.0953,0,0,0,0,0,0,0,0,0,0,0,0,0,-0.0753,-0.0752,-0.0717,-0.0717,-0.0717,-0.075,-0.0751,-0.0752,-0.0835,-0.0837,-0.0839,-0.084,-0.095,-0.0952,-0.0954,0,0,0,0,0,0,0,0,0,0,0,0,0,-0.0761,-0.0752,-0.0717,-0.076,-0.0764,-0.075,-0.0751,-0.0752,-0.0835,-0.0837,-0.0839,-0.0841,-0.0949,-0.0951,-0.0954,-0.0928,0,0,-0.0961,-0.0962,0,0,0,0,0,0,0,0,-0.076,-0.076,-0.0754,-0.0757,-0.0761,-0.0787,-0.0803,-0.0813,-0.0835,-0.0813,-0.084,-0.0842,-0.0898,-0.0905,-0.0912,-0.0933,-0.0937,-0.0962,-0.0963,-0.0964,-0.0965,0,0,0,0,0,0,0,-0.0759,-0.0759,-0.0735,-0.0753,-0.0758,-0.0785,-0.0789,-0.0806,-0.0848,-0.0815,-0.082,-0.0816,-0.0902,-0.0909,-0.0915,-0.0939,-0.0961,-0.0964,-0.0965,-0.0966,-0.0941,-0.0939,0,0,0,0,0,0,-0.0742,-0.0758,-0.0734,-0.0735,-0.0761,-0.0783,-0.0787,-0.078,-0.0847,-0.0857,-0.0814,-0.0819,-0.0904,-0.0912,-0.0919,-0.0866,-0.0964,-0.0966,-0.0968,-0.0943,-0.0941,-0.0938,0,0,0,0,0,0,-0.0743,-0.074,-0.0732,-0.0744,-0.0745,-0.0779,-0.0771,-0.078,-0.0785,-0.0844,-0.0858,-0.0809,-0.0906,-0.0916,-0.0926,-0.0872,-0.0968,-0.097,-0.0946,-0.0942,-0.0939,-0.0775,0,0,0,0,0,0,-0.0744,-0.074,-0.0732,-0.0743,-0.0743,-0.0709,-0.0769,-0.0779,-0.0777,-0.0784,-0.0844,-0.0857,-0.0908,-0.0922,-0.0929,-0.0877,-0.0972,-0.0948,-0.0944,-0.094,-0.0783,-0.0767,-0.0753,0,0,0,0,0,-0.0745,-0.072,-0.0731,-0.0728,-0.073,-0.0707,-0.0709,-0.0745,-0.0774,-0.0761,-0.0806,-0.0855,-0.0902,-0.0922,-0.0931,-0.0878,-0.095,-0.0945,-0.0941,-0.079,-0.077,-0.0753,0,0,0,0,0,0,-0.0743,-0.0726,-0.0739,-0.0714,-0.0704,-0.0719,-0.0708,-0.0728,-0.0751,-0.0762,-0.083,-0.0845,-0.0832,-0.0877,-0.0898,-0.086,-0.0932,-0.0928,-0.0815,-0.0796,-0.0781,-0.0734,-0.0974,0,0,0,0,0,-0.0732,-0.0699,-0.0698,-0.0674,-0.0666,-0.0683,-0.0679,-0.0694,-0.0712,-0.0725,-0.0764,-0.0801,-0.0815,-0.0825,-0.0851,-0.0827,-0.0841,-0.0799,-0.0783,-0.077,-0.0737,-0.0709,-0.0688,-0.0922,-0.0922,-0.0923,0,0,-0.0726,-0.0707,-0.0694,-0.0668,-0.0667,-0.0622,-0.0687,-0.0662,-0.0622,-0.0731,-0.07,-0.0749,-0.0798,-0.0776,-0.0773,-0.0808,-0.071,-0.0764,-0.0752,-0.0726,-0.0702,-0.0679,-0.0658,-0.0919,-0.092,-0.092,0,0,-0.0672,-0.0676,-0.0627,-0.0601,-0.0574,-0.0575,-0.0559,-0.0561,-0.0565,-0.054,-0.0603,-0.0606,-0.0644,-0.065,-0.0662,-0.0571,-0.0632,-0.0596,-0.0475,-0.0448,-0.0428,-0.0411,-0.0394,-0.0376,-0.0586,-0.0585,-0.0585,0,-0.0671,-0.06,-0.061,-0.0545,-0.0508,-0.0542,-0.0473,-0.0468,-0.0472,-0.0451,-0.0511,-0.0514,-0.0567,-0.0506,-0.0492,-0.0529,-0.0542,-0.0541,-0.0425,-0.0408,-0.0393,-0.0381,-0.0363,-0.0577,-0.0578,-0.0579,-0.058,0,-0.0572,-0.0513,-0.0477,-0.0401,-0.0365,-0.031,-0.0294,-0.0268,-0.0283,-0.0279,-0.0236,-0.03,-0.0298,-0.0318,-0.0385,-0.0296,-0.0349,-0.041,-0.0466,-0.0359,-0.0354,-0.0338,-0.0565,-0.0568,-0.057,-0.0573,0,0,-0.0574,-0.0436,-0.0421,-0.0351,-0.028,-0.0237,-0.0156,-0.0089,-0.0028,-0.0043,0.0041,0.0009,-0.0033,-0.0049,-0.012,-0.0109,-0.003,-0.0215,-0.0217,-0.0185,0.0021,-0.0022,-0.0011,-0.0083,-0.0079,-0.0077,-0.0017,0,-0.0495,-0.0339,-0.0291,-0.0144,-0.0065,-0.0041,0.0041,0.0097,0.0114,0.0178,0.0153,0.0185,0.0074,0.0067,0.0074,-0.0015,0.0017,-0.0041,-0.0098,-0.0099,-0.014,0.0009,0.0026,0.008,-0.0002,0.0,0.0002,0,-0.0415,-0.0311,-0.0153,0.0006,0.004,0.0117,0.0244,0.0313,0.0392,0.0406,0.0447,0.0408,0.044,0.0313,0.0289,0.0247,0.0166,0.0096,0.0095,0.0015,-0.0112,-0.0043,0.011,-0.0118,0.0024,0.0023,0.0021,0,-0.0396,-0.0217,-0.0081,-0.0026,0.0136,0.021,0.0284,0.038,0.0453,0.055,0.06,0.0628,0.0625,0.0565,0.0411,0.0353,0.0367,0.027,0.0179,0.0173,0.0161,0.0149,0.0102,0.0297,0.0297,0.0296,0.0296,0,-0.0323,-0.0216,-0.0062,0.0017,0.0171,0.026,0.0407,0.048,0.0597,0.0711,0.0711,0.079,0.0678,0.0654,0.0517,0.0409,0.0462,0.0254,0.0211,0.0216,0.0209,-0.0018,-0.0165,0.0299,0.0298,0.0298,0.0297,0,-0.0312,-0.021,-0.0051,0.013,0.0188,0.0292,0.0471,0.0577,0.0671,0.0821,0.086,0.0917,0.0901,0.0788,0.0684,0.0538,0.0328,0.0385,0.0394,0.0351,0.0036,-0.0102,-0.0156,-0.0246,0.0323,0.0323,0.0323,0,-0.0284,-0.0199,0.0005,0.0098,0.0185,0.0341,0.0456,0.0595,0.0713,0.0898,0.0982,0.1025,0.1086,0.0944,0.0727,0.0563,0.034,0.0416,0.0321,0.0075,-0.0111,-0.02,-0.0279,0.037,0.037,0.037,0.037,0,-0.0232,-0.0172,-0.0042,0.014,0.0278,0.0442,0.0614,0.0716,0.0892,0.1027,0.1203,0.1277,0.1173,0.1047,0.0799,0.0642,0.0259,0.041,0.0174,-0.0037,-0.0149,-0.0276,0.0249,0.0371,0.0371,0.0371,0.0371,0.0371,-0.021,-0.0122,0.0037,0.0208,0.0359,0.0545,0.0688,0.0868,0.107,0.1323,0.1368,0.1559,0.1338,0.1033,0.0743,0.0252,0.0241,0.0086,-0.0045,-0.01,-0.0226,0.0296,0.0341,0.0341,0.0341,0.034,0.034,0,-0.0158,-0.0049,0.0104,0.0324,0.0486,0.0564,0.0806,0.0964,0.1205,0.147,0.1653,0.1762,0.1383,0.0984,0.0339,-0.0105,-0.0265,-0.0356,-0.0481,-0.053,-0.0033,-0.0076,-0.0142,-0.0141,-0.0141,-0.0141,-0.0141,-0.0141,-0.0114,0.0033,0.0121,0.0395,0.0545,0.0785,0.0927,0.1153,0.1387,0.1765,0.2009,0.2183,0.1903,0.0574,-0.0354,-0.0563,-0.0905,-0.096,-0.1135,-0.0839,-0.0809,-0.078,-0.0853,-0.108,-0.1082,-0.1552,-0.1557,-0.1561]}],[{"header":{"parameterUnit":"m.s-1","parameterCategory":2,"la1":30.2991,"la2":30.254,"lo1":-89.0895,"lo2":-89.0444,"dy":0.0017,"dx":0.0017,"nx":28,"ny":28,"refTime":"2025-01-17T03:00:00:Z","depth":"2","parameterNumber":2,"parameterNumberName":"U-component_of_CURRENTS"},"data":[0,0,0,0,0,0,0,0,0,0,0,0,0,0,0,0,0,0,0,0,0,0,0,0,0,0,0,0,0,0,0,0,0,0,0,0,0,0,0,0,0,0,0,0,0,0,0,0,0,0,0,0,0,0,0,0,0,0,0.2358,0.2359,0,0.2448,0.2449,0.2449,0.2477,0.2476,0.2476,0.2476,0.252,0.2521,0.2522,0,0,0,0,0,0,0,0,0,0,0,0,0,0.2186,0.2189,0.2358,0.2359,0.2361,0.2448,0.2449,0.245,0.2477,0.2476,0.2476,0.2476,0.2519,0.2521,0.2522,0,0,0,0,0,0,0,0,0,0,0,0,0,0.2264,0.219,0.2358,0.2387,0.2391,0.2448,0.2449,0.245,0.2477,0.2476,0.2476,0.2476,0.2519,0.2521,0.2523,0.2539,0,0,0.2529,0.2529,0,0,0,0,0,0,0,0,0.2259,0.227,0.2381,0.2385,0.239,0.2454,0.2404,0.2479,0.2477,0.2441,0.2476,0.2476,0.2496,0.2499,0.2513,0.2541,0.2543,0.2529,0.253,0.2531,0.2531,0,0,0,0,0,0,0,0.2254,0.2266,0.239,0.2383,0.2388,0.2388,0.2399,0.2418,0.2465,0.2444,0.2447,0.2462,0.2497,0.2511,0.2514,0.2544,0.2529,0.253,0.2532,0.2532,0.2641,0.2643,0,0,0,0,0,0,0.2251,0.2261,0.2387,0.2393,0.2326,0.2392,0.2403,0.2431,0.2466,0.2472,0.2462,0.2463,0.2508,0.2512,0.2516,0.2581,0.2531,0.2533,0.2534,0.2639,0.2642,0.2643,0,0,0,0,0,0,0.2248,0.2262,0.2384,0.2331,0.2347,0.2395,0.2425,0.2433,0.2452,0.2481,0.2486,0.2475,0.2508,0.2513,0.255,0.2581,0.2533,0.2535,0.2637,0.264,0.2642,0.2684,0,0,0,0,0,0,0.2242,0.2261,0.2276,0.2331,0.235,0.2429,0.2426,0.2435,0.2463,0.2465,0.2494,0.2497,0.2508,0.2547,0.2552,0.2583,0.2537,0.2635,0.2639,0.2642,0.2681,0.2688,0.2694,0,0,0,0,0,0.2236,0.2262,0.2276,0.2291,0.2371,0.243,0.244,0.247,0.2464,0.2483,0.2503,0.2497,0.2571,0.255,0.2555,0.2588,0.2634,0.2638,0.2641,0.2678,0.2687,0.2694,0,0,0,0,0,0,0.2194,0.227,0.2286,0.2333,0.2382,0.2436,0.2458,0.2473,0.2503,0.2504,0.2516,0.2522,0.257,0.2572,0.2549,0.263,0.2603,0.2608,0.2629,0.2637,0.2643,0.2624,0.2538,0,0,0,0,0,0.2193,0.2234,0.23,0.2338,0.2364,0.2408,0.2433,0.2458,0.2495,0.2508,0.2527,0.2553,0.259,0.2606,0.2636,0.2674,0.2698,0.27,0.2707,0.2713,0.2702,0.2795,0.2809,0.2656,0.2656,0.2656,0,0,0.2185,0.2233,0.2255,0.2331,0.2369,0.2416,0.2422,0.2471,0.2504,0.2508,0.255,0.2577,0.2607,0.2659,0.268,0.2663,0.277,0.2718,0.2722,0.2708,0.2801,0.2816,0.2829,0.2659,0.2658,0.2658,0,0,0.2198,0.2236,0.2278,0.2323,0.2392,0.2422,0.2437,0.2497,0.2518,0.2561,0.2584,0.2629,0.2665,0.2709,0.273,0.279,0.2805,0.2801,0.2816,0.2908,0.2921,0.2933,0.2983,0.2999,0.2801,0.2801,0.2801,0,0.2184,0.225,0.2296,0.235,0.2387,0.2425,0.2473,0.2504,0.2565,0.2594,0.2576,0.2673,0.2691,0.2777,0.2791,0.2805,0.2844,0.2781,0.2917,0.2929,0.294,0.2989,0.3006,0.2804,0.2803,0.2803,0.2803,0,0.2233,0.2284,0.2312,0.2392,0.2435,0.2483,0.2538,0.2575,0.259,0.2627,0.2703,0.2736,0.2797,0.2814,0.2809,0.291,0.2907,0.2918,0.2894,0.2958,0.3005,0.3022,0.2807,0.2806,0.2806,0.2805,0,0,0.2211,0.2324,0.2335,0.2372,0.2461,0.2499,0.2561,0.2634,0.2676,0.2721,0.2786,0.284,0.2862,0.2887,0.2914,0.2969,0.3074,0.2966,0.297,0.3009,0.3257,0.3024,0.302,0.3118,0.3121,0.3124,0.3257,0,0.2235,0.2326,0.2383,0.2455,0.25,0.256,0.2611,0.268,0.2727,0.2797,0.2849,0.2917,0.2893,0.293,0.2988,0.3065,0.3121,0.3034,0.3192,0.3195,0.2977,0.3033,0.2847,0.2929,0.3273,0.3276,0.3278,0,0.2264,0.2322,0.2398,0.2487,0.2513,0.2556,0.2648,0.2702,0.2811,0.2854,0.2938,0.2984,0.3085,0.3045,0.3204,0.3155,0.3198,0.3237,0.3244,0.3016,0.2993,0.2921,0.2947,0.3307,0.3304,0.3302,0.33,0,0.2216,0.2328,0.238,0.2414,0.2522,0.2561,0.2613,0.2717,0.2781,0.2901,0.2972,0.3085,0.3165,0.3246,0.3311,0.328,0.3468,0.3452,0.3284,0.3269,0.3128,0.3092,0.3556,0.3556,0.3556,0.3555,0.3555,0,0.2213,0.2253,0.2358,0.2385,0.2441,0.2528,0.2598,0.2672,0.2803,0.2882,0.2997,0.3085,0.3221,0.3335,0.3367,0.3366,0.3531,0.3279,0.3287,0.3132,0.3096,0.3434,0.3418,0.356,0.3559,0.3558,0.3557,0,0.2146,0.2222,0.2279,0.2387,0.2419,0.2452,0.258,0.2638,0.2774,0.289,0.294,0.3138,0.3267,0.3378,0.3524,0.3424,0.3459,0.3422,0.3192,0.3163,0.3182,0.3167,0.3232,0.3225,0.3219,0.3214,0.321,0,0.2114,0.2141,0.2249,0.2279,0.2325,0.2394,0.2446,0.2594,0.2668,0.2896,0.2951,0.3141,0.3208,0.3325,0.3275,0.3283,0.3395,0.3018,0.2879,0.3146,0.3151,0.3145,0.3138,0.2749,0.2741,0.2735,0.273,0,0.2043,0.2086,0.2135,0.2201,0.2255,0.2318,0.2407,0.2468,0.2639,0.2758,0.2922,0.2999,0.3098,0.3,0.2956,0.292,0.2983,0.2874,0.3312,0.2797,0.2684,0.2688,0.2701,0.2674,0.268,0.2684,0.2687,0.2689,0.1976,0.1991,0.2063,0.2119,0.2178,0.223,0.2256,0.2366,0.2471,0.2557,0.2709,0.2709,0.2738,0.2539,0.2499,0.2461,0.2619,0.2476,0.2501,0.2531,0.2389,0.2264,0.215,0.2153,0.2155,0.2157,0.2158,0,0.1894,0.1939,0.198,0.2044,0.2068,0.2141,0.2223,0.2223,0.2293,0.2305,0.2354,0.2121,0.2048,0.2137,0.1993,0.1911,0.1964,0.1831,0.1931,0.1986,0.2035,0.1872,0.1495,0.1493,0.1491,0.1489,0,0,0.1857,0.1876,0.1909,0.1926,0.197,0.1988,0.2019,0.2022,0.2023,0.1875,0.1797,0.1817,0.198,0.1665,0.1654,0.1572,0.1761,0.1504,0.2041,0.2212,0.2258,0.2411,0.2219,0,0,0,0,0]},{"header":{"parameterUnit":"m.s-1","parameterCategory":2,"la1":30.2991,"la2":30.254,"lo1":-89.0895,"lo2":-89.0444,"dy":0.0017,"dx":0.0017,"nx":28,"ny":28,"refTime":"2025-01-17T03:00:00:Z","depth":"2","parameterNumber":3,"parameterNumberName":"V-component_of_CURRENTS"},"data":[0,0,0,0,0,0,0,0,0,0,0,0,0,0,0,0,0,0,0,0,0,0,0,0,0,0,0,0,0,0,0,0,0,0,0,0,0,0,0,0,0,0,0,0,0,0,0,0,0,0,0,0,0,0,0,0,0,0,0.0152,0.0151,0,0.0069,0.0068,0.0067,-0.0001,-0.0002,-0.0002,-0.0003,-0.0133,-0.0136,-0.0139,0,0,0,0,0,0,0,0,0,0,0,0,0,0.0213,0.0212,0.0152,0.0151,0.015,0.0069,0.0068,0.0066,-0.0001,-0.0002,-0.0003,-0.0003,-0.0132,-0.0136,-0.0139,0,0,0,0,0,0,0,0,0,0,0,0,0,0.0162,0.0212,0.0152,0.0108,0.0104,0.0069,0.0068,0.0066,-0.0001,-0.0002,-0.0003,-0.0003,-0.0131,-0.0135,-0.014,-0.0152,0,0,-0.0153,-0.0155,0,0,0,0,0,0,0,0,0.0165,0.0159,0.0115,0.0111,0.0106,0.0045,0.0042,-0.0009,-0.0001,0.0036,-0.0003,-0.0004,-0.0076,-0.0085,-0.0101,-0.0158,-0.0164,-0.0154,-0.0156,-0.0158,-0.016,0,0,0,0,0,0,0,0.0169,0.0162,0.0117,0.0115,0.0109,0.008,0.0072,0.0032,-0.0017,0.0033,0.0028,0.0023,-0.0079,-0.0097,-0.0105,-0.0166,-0.0154,-0.0158,-0.016,-0.0162,-0.023,-0.0229,0,0,0,0,0,0,0.0186,0.0166,0.0119,0.0114,0.0137,0.008,0.0071,0.0064,-0.0016,-0.0028,0.0024,0.002,-0.0089,-0.01,-0.011,-0.0122,-0.0158,-0.0163,-0.0165,-0.0231,-0.023,-0.0229,0,0,0,0,0,0,0.0188,0.0183,0.0123,0.014,0.0131,0.008,0.0072,0.0063,0.0043,-0.0022,-0.0035,0.0015,-0.009,-0.0103,-0.0142,-0.0128,-0.0165,-0.0169,-0.0232,-0.023,-0.0229,-0.0152,0,0,0,0,0,0,0.019,0.0184,0.0186,0.0141,0.013,0.0109,0.0073,0.0062,0.0042,0.0037,-0.0034,-0.0047,-0.0091,-0.0135,-0.0146,-0.0135,-0.0172,-0.0233,-0.0231,-0.023,-0.0155,-0.0148,-0.0141,0,0,0,0,0,0.0192,0.0205,0.0186,0.0181,0.0135,0.011,0.0101,0.0061,0.0043,0.004,-0.0007,-0.0044,-0.0132,-0.0138,-0.0151,-0.0141,-0.0234,-0.0232,-0.023,-0.0158,-0.0149,-0.0141,0,0,0,0,0,0,0.0236,0.0198,0.0177,0.0177,0.0147,0.0099,0.0097,0.0068,0.0028,0.0023,-0.0041,-0.0057,-0.0084,-0.012,-0.0125,-0.0153,-0.0186,-0.0186,-0.0127,-0.0119,-0.0112,-0.0098,-0.0176,0,0,0,0,0,0.0247,0.0243,0.0201,0.0202,0.0191,0.0144,0.013,0.0102,0.0063,0.0044,-0.0008,-0.0053,-0.0085,-0.0108,-0.0147,-0.0166,-0.0207,-0.0165,-0.0158,-0.0152,-0.0148,-0.0192,-0.0189,-0.0222,-0.0222,-0.0222,0,0,0.0264,0.0244,0.0241,0.0211,0.0185,0.0172,0.0133,0.0118,0.0106,0.0037,0.0004,-0.0036,-0.0085,-0.0107,-0.0121,-0.0136,-0.0163,-0.0149,-0.0144,-0.0144,-0.019,-0.0187,-0.0184,-0.0221,-0.0221,-0.0221,0,0,0.0301,0.028,0.0287,0.0263,0.0231,0.0202,0.0201,0.0152,0.013,0.0098,0.0051,0.0023,-0.0039,-0.0067,-0.0087,-0.0064,-0.0126,-0.0074,-0.003,-0.0072,-0.007,-0.0069,-0.0114,-0.0117,-0.0069,-0.0069,-0.0069,0,0.0323,0.032,0.0287,0.0282,0.0268,0.0219,0.022,0.0194,0.0136,0.0125,0.0099,0.0026,-0.0016,-0.0033,-0.0023,-0.0048,-0.0087,-0.0058,-0.0063,-0.0063,-0.0063,-0.011,-0.0114,-0.0065,-0.0065,-0.0066,-0.0066,0,0.0355,0.035,0.0355,0.0329,0.0312,0.0307,0.0266,0.0247,0.0215,0.0184,0.0156,0.0099,0.0058,0.0047,0.0016,0.0005,-0.0028,-0.0051,-0.0084,-0.0055,-0.0106,-0.0112,-0.0059,-0.0061,-0.0062,-0.0063,0,0,0.0407,0.0384,0.0382,0.0379,0.0336,0.0328,0.0316,0.0293,0.0295,0.0239,0.0236,0.0184,0.0152,0.0128,0.0087,0.0055,0.0025,0.0008,0.0004,-0.0036,-0.0077,-0.0109,-0.012,-0.0005,-0.0006,-0.0006,-0.0112,0,0.0439,0.045,0.0425,0.043,0.043,0.0385,0.0381,0.0354,0.0326,0.031,0.0261,0.0238,0.0184,0.0172,0.0131,0.0061,0.0011,0.0055,-0.01,-0.0105,-0.0137,-0.0126,-0.0099,-0.0192,-0.0119,-0.012,-0.0121,0,0.0469,0.0473,0.0487,0.0481,0.0479,0.047,0.0459,0.045,0.0418,0.0402,0.0366,0.032,0.0278,0.0224,0.0103,0.0132,0.0029,-0.0036,-0.0043,-0.0104,-0.0148,-0.0211,-0.0207,-0.0132,-0.0131,-0.013,-0.0129,0,0.0513,0.0515,0.0531,0.0523,0.0508,0.0507,0.0497,0.0472,0.0494,0.0455,0.0476,0.0391,0.0378,0.0242,0.0119,0.01,-0.0017,-0.0065,-0.02,-0.0204,-0.0227,-0.0231,-0.0178,-0.0178,-0.0178,-0.0178,-0.0177,0,0.0549,0.0562,0.0551,0.0555,0.0584,0.0549,0.0579,0.0562,0.0568,0.061,0.0527,0.0555,0.0383,0.0303,0.0145,-0.0026,-0.0004,-0.0194,-0.0232,-0.0199,-0.0199,-0.0184,-0.0183,-0.0182,-0.0181,-0.018,-0.0179,0,0.0589,0.058,0.0603,0.0599,0.0601,0.0618,0.0644,0.0682,0.0671,0.0726,0.0725,0.0686,0.0583,0.0406,0.0206,0.0033,-0.0146,-0.0223,-0.0169,-0.02,-0.0323,-0.0317,-0.0408,-0.041,-0.0412,-0.0413,-0.0414,0,0.0613,0.0625,0.0641,0.0667,0.0663,0.0687,0.0723,0.0727,0.0784,0.0817,0.087,0.0798,0.0759,0.0467,0.0175,-0.0121,-0.0143,-0.0319,-0.0364,-0.0318,-0.0346,-0.0337,-0.0329,-0.0367,-0.0367,-0.0368,-0.0368,0,0.0661,0.0661,0.0684,0.0734,0.0772,0.0832,0.0881,0.0949,0.0973,0.1039,0.1125,0.1091,0.0809,0.0529,0.0109,-0.0088,-0.0272,-0.0344,-0.0301,-0.0307,-0.0286,-0.0311,-0.0303,-0.0373,-0.0373,-0.0372,-0.0372,-0.0372,0.0701,0.0731,0.0761,0.081,0.0872,0.0972,0.1041,0.1138,0.1256,0.1312,0.1269,0.1182,0.0837,0.0293,0.001,-0.0291,-0.0312,-0.0463,-0.0458,-0.0454,-0.0425,-0.0407,-0.0512,-0.0512,-0.0513,-0.0513,-0.0513,0,0.0743,0.078,0.0838,0.091,0.1,0.1015,0.1154,0.1251,0.1423,0.1383,0.1397,0.1017,0.0672,0.0332,-0.0128,-0.0435,-0.0431,-0.0511,-0.0445,-0.044,-0.0436,-0.0402,-0.0486,-0.0486,-0.0487,-0.0487,0,0,0.077,0.0827,0.0857,0.1003,0.1068,0.1206,0.1296,0.1466,0.1499,0.1461,0.1328,0.1092,0.0689,0.0344,-0.0017,-0.0236,-0.0266,-0.0277,-0.0277,-0.0153,-0.0144,-0.0397,-0.034,0,0,0,0,0]}],[{"header":{"parameterUnit":"m.s-1","parameterCategory":2,"la1":30.2991,"la2":30.254,"lo1":-89.0895,"lo2":-89.0444,"dy":0.0017,"dx":0.0017,"nx":28,"ny":28,"refTime":"2025-01-17T03:00:00:Z","depth":"4","parameterNumber":2,"parameterNumberName":"U-component_of_CURRENTS"},"data":[0,0,0,0,0,0,0,0,0,0,0,0,0,0,0,0,0,0,0,0,0,0,0,0,0,0,0,0,0,0,0,0,0,0,0,0,0,0,0,0,0,0,0,0,0,0,0,0,0,0,0,0,0,0,0,0,0,0,0.094,0.0941,0,0.1006,0.1006,0.1007,0.1066,0.1067,0.1068,0.1068,0.1118,0.1119,0.1119,0,0,0,0,0,0,0,0,0,0,0,0,0,0.0814,0.0817,0.094,0.0941,0.0942,0.1006,0.1006,0.1007,0.1066,0.1067,0.1068,0.1069,0.1118,0.1119,0.1119,0,0,0,0,0,0,0,0,0,0,0,0,0,0.0872,0.0817,0.094,0.098,0.0984,0.1006,0.1007,0.1007,0.1066,0.1067,0.1068,0.1069,0.1118,0.1119,0.112,0.11,0,0,0.1122,0.1122,0,0,0,0,0,0,0,0,0.0869,0.0876,0.0973,0.0977,0.0982,0.103,0.0981,0.1038,0.1065,0.1033,0.1068,0.107,0.1087,0.1091,0.1099,0.1102,0.1104,0.1122,0.1123,0.1123,0.1123,0,0,0,0,0,0,0,0.0865,0.0874,0.0965,0.0974,0.098,0.0977,0.0987,0.0992,0.1051,0.1036,0.1041,0.105,0.109,0.1098,0.11,0.1105,0.1122,0.1123,0.1123,0.1124,0.1158,0.1158,0,0,0,0,0,0,0.0862,0.087,0.0962,0.0967,0.0929,0.0979,0.099,0.1012,0.1051,0.1059,0.1049,0.1053,0.1096,0.1099,0.1102,0.1158,0.1123,0.1124,0.1124,0.1157,0.1158,0.1158,0,0,0,0,0,0,0.0859,0.087,0.096,0.092,0.0932,0.098,0.1005,0.1013,0.1046,0.1062,0.1069,0.1077,0.1097,0.1101,0.1127,0.1157,0.1124,0.1125,0.1157,0.1158,0.1158,0.122,0,0,0,0,0,0,0.0855,0.0868,0.0883,0.0921,0.0934,0.0984,0.1004,0.1013,0.1049,0.1056,0.1087,0.1092,0.1098,0.1126,0.1128,0.1158,0.1126,0.1156,0.1157,0.1158,0.1217,0.1222,0.1227,0,0,0,0,0,0.085,0.0864,0.0884,0.0895,0.0954,0.0985,0.0992,0.1028,0.105,0.1063,0.1089,0.1093,0.1132,0.1126,0.1129,0.116,0.1156,0.1157,0.1158,0.1215,0.1221,0.1227,0,0,0,0,0,0,0.082,0.0873,0.0895,0.0927,0.096,0.0996,0.1013,0.1038,0.1069,0.108,0.1097,0.1103,0.1141,0.1132,0.1125,0.1169,0.1144,0.1146,0.1187,0.1193,0.1198,0.1171,0.1126,0,0,0,0,0,0.0819,0.0838,0.0892,0.0912,0.0938,0.0979,0.0998,0.1024,0.1055,0.1072,0.1099,0.1119,0.1141,0.1153,0.1166,0.1184,0.1177,0.1203,0.1208,0.1213,0.1191,0.122,0.1226,0.1161,0.1161,0.1161,0,0,0.0815,0.084,0.0856,0.0905,0.0938,0.0971,0.0995,0.103,0.1057,0.1069,0.1117,0.1141,0.1149,0.1181,0.1196,0.1181,0.1229,0.1214,0.1218,0.1193,0.1222,0.1228,0.1234,0.1162,0.1162,0.1162,0,0,0.0801,0.0842,0.0859,0.089,0.0938,0.0966,0.0983,0.1039,0.107,0.111,0.1133,0.116,0.12,0.1207,0.1216,0.1245,0.1258,0.1269,0.1272,0.1302,0.1308,0.1312,0.1325,0.133,0.1268,0.1268,0.1268,0,0.079,0.0825,0.0866,0.0891,0.0919,0.097,0.1001,0.1034,0.1088,0.1115,0.1132,0.1199,0.1203,0.1237,0.1249,0.1256,0.1279,0.1257,0.131,0.1314,0.1318,0.1329,0.1334,0.1271,0.127,0.127,0.127,0,0.0796,0.0829,0.0842,0.0894,0.0928,0.0958,0.1018,0.1053,0.1101,0.1142,0.1203,0.1218,0.1261,0.127,0.1268,0.1306,0.1317,0.1321,0.1299,0.1329,0.1338,0.1343,0.1275,0.1274,0.1273,0.1272,0,0,0.0756,0.0832,0.0838,0.0868,0.0936,0.0964,0.101,0.1072,0.1116,0.1171,0.1228,0.1256,0.1294,0.1301,0.1319,0.1322,0.1368,0.1337,0.1338,0.1355,0.1444,0.1384,0.1382,0.141,0.1411,0.1412,0.1445,0,0.075,0.0791,0.0835,0.0883,0.0921,0.0977,0.1024,0.1082,0.1142,0.1209,0.1241,0.1307,0.1304,0.1344,0.1354,0.137,0.1381,0.1358,0.1405,0.1405,0.1354,0.1385,0.1414,0.1448,0.1449,0.145,0.145,0,0.0743,0.0773,0.0823,0.0896,0.0923,0.0962,0.1046,0.1098,0.1189,0.124,0.1307,0.1359,0.1391,0.1385,0.1422,0.1425,0.1435,0.1429,0.1431,0.1347,0.1352,0.1407,0.1457,0.1457,0.1456,0.1456,0.1455,0,0.0694,0.0763,0.0801,0.0827,0.0921,0.0957,0.1018,0.1112,0.1171,0.1276,0.1328,0.1397,0.1448,0.1464,0.1476,0.1471,0.1504,0.15,0.1446,0.1442,0.146,0.1454,0.1515,0.1515,0.1515,0.1515,0.1514,0,0.0664,0.0694,0.0788,0.0809,0.0869,0.0952,0.1027,0.1094,0.1203,0.1273,0.1363,0.1412,0.1476,0.1515,0.1503,0.1491,0.1542,0.1437,0.1446,0.1486,0.1483,0.1464,0.1458,0.1516,0.1516,0.1515,0.1515,0,0.0605,0.0664,0.071,0.081,0.0848,0.0899,0.1027,0.108,0.1196,0.1284,0.1326,0.1449,0.1499,0.1536,0.1562,0.1528,0.151,0.1494,0.1532,0.1545,0.1418,0.1415,0.1428,0.1426,0.1425,0.1423,0.1422,0,0.058,0.0599,0.0697,0.0733,0.0784,0.0871,0.0932,0.1062,0.1115,0.1283,0.1311,0.1425,0.1485,0.1477,0.1518,0.151,0.1491,0.1483,0.1432,0.1402,0.141,0.1409,0.1407,0.142,0.1419,0.1419,0.1419,0,0.0528,0.0566,0.0605,0.0677,0.0742,0.0807,0.0902,0.0937,0.1085,0.1189,0.1278,0.1336,0.1398,0.1431,0.1453,0.1435,0.1484,0.1466,0.1468,0.142,0.1392,0.1401,0.1402,0.1413,0.1414,0.1414,0.1415,0,0.0487,0.0498,0.0554,0.0615,0.0689,0.074,0.0794,0.0874,0.0953,0.1137,0.1157,0.1277,0.138,0.1393,0.1398,0.1397,0.1368,0.1321,0.133,0.1337,0.1292,0.1242,0.122,0,0,0,0,0,0.0447,0.0459,0.0497,0.0556,0.0623,0.0669,0.0776,0.0832,0.0962,0.0997,0.1084,0.1137,0.1207,0.1267,0.1245,0.1339,0.1356,0.1308,0.1301,0.1383,0.1389,0.1346,0,0,0,0,0,0,0.0422,0.0449,0.0467,0.0497,0.0527,0.0592,0.0658,0.0743,0.077,0.091,0.0947,0.1063,0.113,0.1195,0.1217,0.1233,0.1208,0.1382,0.1379,0.1379,0.1385,0.139,0.1348,0,0,0,0,0]},{"header":{"parameterUnit":"m.s-1","parameterCategory":2,"la1":30.2991,"la2":30.254,"lo1":-89.0895,"lo2":-89.0444,"dy":0.0017,"dx":0.0017,"nx":28,"ny":28,"refTime":"2025-01-17T03:00:00:Z","depth":"4","parameterNumber":3,"parameterNumberName":"V-component_of_CURRENTS"},"data":[0,0,0,0,0,0,0,0,0,0,0,0,0,0,0,0,0,0,0,0,0,0,0,0,0,0,0,0,0,0,0,0,0,0,0,0,0,0,0,0,0,0,0,0,0,0,0,0,0,0,0,0,0,0,0,0,0,0,0.0068,0.0068,0,0.0039,0.0038,0.0038,0.0024,0.0024,0.0025,0.0025,-0.0013,-0.0014,-0.0015,0,0,0,0,0,0,0,0,0,0,0,0,0,0.0096,0.0096,0.0068,0.0068,0.0068,0.0039,0.0038,0.0038,0.0024,0.0024,0.0025,0.0025,-0.0013,-0.0014,-0.0015,0,0,0,0,0,0,0,0,0,0,0,0,0,0.0076,0.0096,0.0068,0.0059,0.0058,0.0039,0.0038,0.0038,0.0024,0.0024,0.0025,0.0025,-0.0012,-0.0014,-0.0016,-0.0032,0,0,-0.0021,-0.0022,0,0,0,0,0,0,0,0,0.0077,0.0075,0.0061,0.006,0.0058,0.0037,0.0034,0.0015,0.0024,0.0035,0.0025,0.0025,0.0004,0.0001,-0.0008,-0.0033,-0.0035,-0.0021,-0.0022,-0.0023,-0.0023,0,0,0,0,0,0,0,0.0078,0.0076,0.0055,0.006,0.0059,0.005,0.0048,0.003,0.0017,0.0034,0.0034,0.0033,0.0003,-0.0006,-0.0009,-0.0036,-0.0021,-0.0023,-0.0024,-0.0024,-0.0076,-0.0077,0,0,0,0,0,0,0.0086,0.0077,0.0056,0.0054,0.007,0.005,0.0047,0.0042,0.0017,0.0014,0.0033,0.0032,-0.0003,-0.0006,-0.001,-0.0039,-0.0023,-0.0024,-0.0026,-0.0076,-0.0077,-0.0077,0,0,0,0,0,0,0.0086,0.0084,0.0057,0.0067,0.0063,0.0049,0.0044,0.0042,0.0034,0.0016,0.0013,0.0028,-0.0003,-0.0007,-0.0025,-0.004,-0.0025,-0.0027,-0.0076,-0.0076,-0.0077,-0.0091,0,0,0,0,0,0,0.0087,0.0084,0.0081,0.0067,0.0063,0.0046,0.0044,0.0041,0.0034,0.0033,0.0011,0.0008,-0.0003,-0.0022,-0.0027,-0.0042,-0.0028,-0.0075,-0.0076,-0.0077,-0.009,-0.0091,-0.0093,0,0,0,0,0,0.0088,0.0083,0.0081,0.0079,0.0059,0.0045,0.0042,0.0033,0.0033,0.0027,0.0015,0.0009,-0.0029,-0.0024,-0.0029,-0.0045,-0.0075,-0.0076,-0.0076,-0.0089,-0.0091,-0.0093,0,0,0,0,0,0,0.0088,0.0081,0.0078,0.0069,0.0059,0.0044,0.0037,0.0033,0.0018,0.0017,0.0003,-0.0001,-0.0024,-0.0029,-0.0023,-0.0061,-0.0053,-0.0055,-0.0061,-0.0063,-0.0064,-0.0065,-0.003,0,0,0,0,0,0.0088,0.0086,0.0074,0.0067,0.0062,0.005,0.0044,0.0038,0.0025,0.0018,0.0004,-0.0011,-0.0032,-0.0041,-0.0059,-0.0079,-0.0093,-0.0091,-0.0093,-0.0094,-0.0098,-0.0138,-0.0144,-0.0079,-0.0079,-0.0079,0,0,0.0083,0.0082,0.0078,0.0068,0.0058,0.005,0.0046,0.0036,0.0027,0.0016,-0.0002,-0.0019,-0.0038,-0.0063,-0.0073,-0.0069,-0.0118,-0.0095,-0.0097,-0.01,-0.014,-0.0146,-0.0152,-0.008,-0.008,-0.008,0,0,0.0079,0.0074,0.0071,0.0064,0.0056,0.0048,0.0047,0.0032,0.0022,0.0005,-0.0009,-0.0033,-0.0056,-0.0079,-0.0092,-0.0113,-0.0127,-0.0115,-0.0126,-0.0165,-0.0171,-0.0177,-0.0196,-0.0203,-0.0115,-0.0115,-0.0116,0,0.0074,0.0075,0.0067,0.0064,0.0062,0.005,0.0046,0.0029,0.0011,0.0001,-0.0,-0.005,-0.0067,-0.0105,-0.0114,-0.0119,-0.0135,-0.0118,-0.0169,-0.0174,-0.018,-0.0198,-0.0205,-0.0116,-0.0116,-0.0116,-0.0116,0,0.0071,0.0071,0.0068,0.0064,0.0056,0.0052,0.0034,0.0022,0.0013,-0.0003,-0.0039,-0.007,-0.0097,-0.0111,-0.0121,-0.0168,-0.0165,-0.0168,-0.0165,-0.0187,-0.0204,-0.0212,-0.0117,-0.0117,-0.0117,-0.0117,0,0,0.0065,0.0067,0.0067,0.0078,0.0061,0.0061,0.0037,0.002,0.0015,-0.0023,-0.004,-0.0094,-0.0112,-0.0128,-0.015,-0.0189,-0.0241,-0.0195,-0.0197,-0.0216,-0.0317,-0.0296,-0.0302,-0.0256,-0.0258,-0.0259,-0.0311,0,0.0069,0.0081,0.0072,0.008,0.0088,0.0068,0.0055,0.0034,0.0013,-0.0009,-0.0061,-0.0084,-0.0118,-0.0127,-0.018,-0.0222,-0.0263,-0.0226,-0.0291,-0.0292,-0.0273,-0.0311,-0.0264,-0.0317,-0.0319,-0.032,-0.0321,0,0.0074,0.0089,0.0101,0.0113,0.0113,0.0108,0.01,0.0086,0.004,0.0023,-0.0029,-0.0062,-0.0131,-0.0147,-0.0256,-0.0231,-0.0278,-0.0315,-0.0318,-0.03,-0.0286,-0.0292,-0.0335,-0.0334,-0.0333,-0.0332,-0.0331,0,0.0104,0.0112,0.0132,0.0134,0.0135,0.0134,0.013,0.0096,0.0096,0.0044,0.004,-0.0054,-0.0083,-0.0176,-0.0261,-0.026,-0.0372,-0.0374,-0.0402,-0.04,-0.0396,-0.039,-0.0455,-0.0455,-0.0455,-0.0455,-0.0454,0,0.0124,0.0141,0.0153,0.0167,0.0192,0.0174,0.0188,0.0166,0.0141,0.0144,0.0063,0.0044,-0.0092,-0.017,-0.0259,-0.0355,-0.0374,-0.0414,-0.0421,-0.0398,-0.0392,-0.0401,-0.0394,-0.0457,-0.0456,-0.0456,-0.0455,0,0.015,0.0156,0.0188,0.0202,0.0209,0.0228,0.0239,0.0248,0.0219,0.0218,0.0207,0.0114,0.0007,-0.0123,-0.0264,-0.033,-0.0431,-0.0457,-0.0415,-0.0416,-0.0432,-0.0426,-0.0497,-0.0497,-0.0497,-0.0497,-0.0497,0,0.0165,0.0185,0.0222,0.0247,0.0254,0.0281,0.0298,0.0286,0.0297,0.0265,0.0268,0.0171,0.0095,-0.0088,-0.0233,-0.0408,-0.0428,-0.0472,-0.0473,-0.0442,-0.0441,-0.0434,-0.0428,-0.0497,-0.0497,-0.0497,-0.0497,0,0.0192,0.0205,0.0231,0.0284,0.0315,0.0351,0.0374,0.0395,0.0382,0.0366,0.0324,0.0219,0.0099,-0.007,-0.0207,-0.0331,-0.0444,-0.0471,-0.0472,-0.0474,-0.0442,-0.044,-0.0434,-0.0496,-0.0496,-0.0496,-0.0496,0,0.0211,0.0233,0.0267,0.0314,0.0358,0.0397,0.0413,0.0424,0.0432,0.0401,0.0388,0.0249,0.0161,-0.0029,-0.0156,-0.0281,-0.0311,-0.0339,-0.0348,-0.035,-0.0297,-0.0235,-0.024,0,0,0,0,0,0.0226,0.0249,0.0293,0.034,0.0385,0.0406,0.0449,0.046,0.0464,0.0448,0.0419,0.0308,0.0114,0.0021,-0.0101,-0.0163,-0.034,-0.0308,-0.0378,-0.0494,-0.0495,-0.0457,0,0,0,0,0,0,0.0232,0.0271,0.0291,0.035,0.0383,0.0428,0.0457,0.0464,0.0453,0.044,0.0335,0.0286,0.0088,0.0177,-0.0104,-0.0144,-0.02,-0.0404,-0.0406,-0.0494,-0.0494,-0.0495,-0.0456,0,0,0,0,0]}]]